Stolt Shearwater — ZCRD9 — position and weather

sailwx.info

Track history (hours):
 
Tides and Currents Weather Stations Pressure Air Temp Water Temp Dewpoint Dewpoint Depression Visibility Wind Speed Wind Dir Waves Ship Positions

Stolt Shearwater

Last reported at 2014-Aug-27 15:31 UTC. Time now 2014-Aug-27 17:15 UTC.
Position N 41°33' E 003°21'.

Length 96 m; draft 6.3 m.

Type: Ship (hazmat cat B). MMSI: 319402000.

Date/timePositionNaut miles runAvg speedWind from/ knotsBaromVisibWave heightAir tempDewpointWater temp
2014-Aug-27 15:31N 41°33' E 003°21'10 9.1
2014-Aug-27 14:24N 41°25' E 003°13'1010.0
2014-Aug-27 13:27N 41°17' E 003°05'8 8.3
2014-Aug-27 12:26N 41°11' E 002°58'7 8.5
2014-Aug-27 11:33N 41°05' E 002°52'9 9.0
2014-Aug-27 10:32N 40°58' E 002°45'10 9.8
2014-Aug-27 09:33N 40°50' E 002°37'10 9.7
2014-Aug-27 08:33N 40°42' E 002°29'10 9.7
2014-Aug-27 07:33N 40°34' E 002°22'10 9.8
2014-Aug-27 06:33N 40°27' E 002°13'1010.0
2014-Aug-27 05:34N 40°19' E 002°05'1010.1
2014-Aug-27 04:33N 40°11' E 001°57'1010.3
2014-Aug-27 03:33N 40°03' E 001°49'1010.4
2014-Aug-27 02:33N 39°55' E 001°40'1010.1
2014-Aug-27 01:33N 39°47' E 001°33'40 9.9
2014-Aug-26 21:33N 39°15' E 001°01'2310.3
2014-Aug-26 19:22N 38°57' E 000°43'910.5
2014-Aug-26 18:32N 38°51' E 000°36'1010.3
2014-Aug-26 17:33N 38°43' E 000°29'1110.4
2014-Aug-26 16:32N 38°34' E 000°21'10 9.8
2014-Aug-26 15:33N 38°26' E 000°14'1010.2
2014-Aug-26 14:32N 38°17' E 000°07'1110.6
2014-Aug-26 13:32N 38°08' W 000°01'1010.3
2014-Aug-26 12:33N 38°00' W 000°08'1010.3
2014-Aug-26 11:33N 37°52' W 000°15'1010.0
2014-Aug-26 10:33N 37°43' W 000°23'1010.1
2014-Aug-26 09:33N 37°35' W 000°29'1010.0
2014-Aug-26 08:33N 37°28' W 000°38'10 9.9
2014-Aug-26 07:33N 37°21' W 000°48'1210.0
2014-Aug-26 06:23N 37°13' W 000°59'37 9.7
2014-Aug-26 02:32N 36°49' W 001°34'1010.0
2014-Aug-26 01:33N 36°42' W 001°43'335 9.8
2014-Aug-24 15:33N 36°23' W 008°39'1610.8
2014-Aug-24 14:06N 36°26' W 008°58'810.4
2014-Aug-24 13:18N 36°28' W 009°08'20 9.5
2014-Aug-24 11:15N 36°37' W 009°29'  
2014-Aug-20 01:34N 50°36' E 000°23'1010.4
2014-Aug-20 00:33N 50°40' E 000°38'1110.7
2014-Aug-19 23:33N 50°46' E 000°52'2310.1
2014-Aug-19 21:20N 50°60' E 001°20'7 9.2
2014-Aug-19 20:34N 51°04' E 001°29'9 8.8
2014-Aug-19 19:34N 51°10' E 001°40'9 8.7
2014-Aug-19 18:34N 51°17' E 001°49'10 9.8
2014-Aug-19 17:34N 51°26' E 001°56'1010.0
2014-Aug-19 16:32N 51°33' E 002°06'1110.3
2014-Aug-19 15:29N 51°41' E 002°19'55 7.8
2014-Aug-19 08:28N 52°05' E 003°39'7 7.7
2014-Aug-19 07:33N 52°04' E 003°50'8 7.6
2014-Aug-19 06:33N 52°00' E 004°01'1211.5
2014-Aug-19 05:33N 51°54' E 004°17'1 1.1
2014-Aug-19 04:19N 51°53' E 004°18'0 0.0
2014-Aug-19 03:25N 51°53' E 004°18'0 0.0
2014-Aug-19 02:25N 51°53' E 004°18'0 0.0
2014-Aug-19 01:31N 51°53' E 004°18'0 0.0
2014-Aug-19 00:25N 51°53' E 004°18'0 0.0
2014-Aug-18 23:28N 51°53' E 004°18'0 0.0
2014-Aug-18 21:31N 51°53' E 004°18'0 0.0
2014-Aug-18 20:19N 51°53' E 004°18'0 0.0
2014-Aug-18 19:13N 51°53' E 004°18'0 0.0
2014-Aug-18 18:19N 51°53' E 004°18'0 0.0
2014-Aug-18 16:13N 51°53' E 004°18'0 0.0
2014-Aug-18 15:31N 51°53' E 004°18'0 0.0
2014-Aug-18 14:31N 51°53' E 004°18'0 0.0
2014-Aug-18 13:33N 51°53' E 004°18'1 0.5
2014-Aug-18 12:34N 51°53' E 004°18'0 0.1
2014-Aug-18 11:33N 51°53' E 004°18'0 0.0
2014-Aug-18 10:33N 51°53' E 004°18'0 0.0
2014-Aug-18 08:33N 51°53' E 004°18'  
Track history (hours):
 
Tides and Currents Weather Stations Pressure Air Temp Water Temp Dewpoint Dewpoint Depression Visibility Wind Speed Wind Dir Waves Ship Positions

Stolt Shearwater

Last reported at 2014-Aug-27 15:31 UTC. Time now 2014-Aug-27 17:15 UTC.
Position N 41°33' E 003°21'.

Length 96 m; draft 6.3 m.

Type: Ship (hazmat cat B). MMSI: 319402000.

Date/timePositionNaut miles runAvg speedWind from/ knotsBaromVisibWave heightAir tempDewpointWater temp
2014-Aug-27 15:31N 41°33' E 003°21'10 9.1
2014-Aug-27 14:24N 41°25' E 003°13'1010.0
2014-Aug-27 13:27N 41°17' E 003°05'8 8.3
2014-Aug-27 12:26N 41°11' E 002°58'7 8.5
2014-Aug-27 11:33N 41°05' E 002°52'9 9.0
2014-Aug-27 10:32N 40°58' E 002°45'10 9.8
2014-Aug-27 09:33N 40°50' E 002°37'10 9.7
2014-Aug-27 08:33N 40°42' E 002°29'10 9.7
2014-Aug-27 07:33N 40°34' E 002°22'10 9.8
2014-Aug-27 06:33N 40°27' E 002°13'1010.0
2014-Aug-27 05:34N 40°19' E 002°05'1010.1
2014-Aug-27 04:33N 40°11' E 001°57'1010.3
2014-Aug-27 03:33N 40°03' E 001°49'1010.4
2014-Aug-27 02:33N 39°55' E 001°40'1010.1
2014-Aug-27 01:33N 39°47' E 001°33'40 9.9
2014-Aug-26 21:33N 39°15' E 001°01'2310.3
2014-Aug-26 19:22N 38°57' E 000°43'910.5
2014-Aug-26 18:32N 38°51' E 000°36'1010.3
2014-Aug-26 17:33N 38°43' E 000°29'1110.4
2014-Aug-26 16:32N 38°34' E 000°21'10 9.8
2014-Aug-26 15:33N 38°26' E 000°14'1010.2
2014-Aug-26 14:32N 38°17' E 000°07'1110.6
2014-Aug-26 13:32N 38°08' W 000°01'1010.3
2014-Aug-26 12:33N 38°00' W 000°08'1010.3
2014-Aug-26 11:33N 37°52' W 000°15'1010.0
2014-Aug-26 10:33N 37°43' W 000°23'1010.1
2014-Aug-26 09:33N 37°35' W 000°29'1010.0
2014-Aug-26 08:33N 37°28' W 000°38'10 9.9
2014-Aug-26 07:33N 37°21' W 000°48'1210.0
2014-Aug-26 06:23N 37°13' W 000°59'37 9.7
2014-Aug-26 02:32N 36°49' W 001°34'1010.0
2014-Aug-26 01:33N 36°42' W 001°43'335 9.8
2014-Aug-24 15:33N 36°23' W 008°39'1610.8
2014-Aug-24 14:06N 36°26' W 008°58'810.4
2014-Aug-24 13:18N 36°28' W 009°08'20 9.5
2014-Aug-24 11:15N 36°37' W 009°29'  
2014-Aug-20 01:34N 50°36' E 000°23'1010.4
2014-Aug-20 00:33N 50°40' E 000°38'1110.7
2014-Aug-19 23:33N 50°46' E 000°52'2310.1
2014-Aug-19 21:20N 50°60' E 001°20'7 9.2
2014-Aug-19 20:34N 51°04' E 001°29'9 8.8
2014-Aug-19 19:34N 51°10' E 001°40'9 8.7
2014-Aug-19 18:34N 51°17' E 001°49'10 9.8
2014-Aug-19 17:34N 51°26' E 001°56'1010.0
2014-Aug-19 16:32N 51°33' E 002°06'1110.3
2014-Aug-19 15:29N 51°41' E 002°19'55 7.8
2014-Aug-19 08:28N 52°05' E 003°39'7 7.7
2014-Aug-19 07:33N 52°04' E 003°50'8 7.6
2014-Aug-19 06:33N 52°00' E 004°01'1211.5
2014-Aug-19 05:33N 51°54' E 004°17'1 1.1
2014-Aug-19 04:19N 51°53' E 004°18'0 0.0
2014-Aug-19 03:25N 51°53' E 004°18'0 0.0
2014-Aug-19 02:25N 51°53' E 004°18'0 0.0
2014-Aug-19 01:31N 51°53' E 004°18'0 0.0
2014-Aug-19 00:25N 51°53' E 004°18'0 0.0
2014-Aug-18 23:28N 51°53' E 004°18'0 0.0
2014-Aug-18 21:31N 51°53' E 004°18'0 0.0
2014-Aug-18 20:19N 51°53' E 004°18'0 0.0
2014-Aug-18 19:13N 51°53' E 004°18'0 0.0
2014-Aug-18 18:19N 51°53' E 004°18'0 0.0
2014-Aug-18 16:13N 51°53' E 004°18'0 0.0
2014-Aug-18 15:31N 51°53' E 004°18'0 0.0
2014-Aug-18 14:31N 51°53' E 004°18'0 0.0
2014-Aug-18 13:33N 51°53' E 004°18'1 0.5
2014-Aug-18 12:34N 51°53' E 004°18'0 0.1
2014-Aug-18 11:33N 51°53' E 004°18'0 0.0
2014-Aug-18 10:33N 51°53' E 004°18'0 0.0
2014-Aug-18 08:33N 51°53' E 004°18'  

Dump ship's entire track history